STARLINK-34669, 64811

Orbit data source: Space-Track

STARLINK-34669, 64811 is a payload satellite owned by SpaceX/Seattle (US) in LEO that was launched on Wed, 16 Jul 2025 UTC via an FALCON 9 launch vehicle from the Air Force Western Test Range (AFWTR). Payload-class satellites include a variety of spacecraft equipped with specific instruments for various scientific and technological missions. These include communications satellites like Starlink; space stations such as the ISS; scientific satellites like the Hubble; Earth observation satellites from companies like Planet Labs, Umbra, and HawkEye 360; GPS; miniature CubeSats for education and research; and military/defense satellites.

Loading next visibility...
Identifier
64811, 2025-150X
Orbit
LEO
Country
Flag of USUS
Related business
Manufacturer
SpaceX/Seattle
Mission
Operational Commercial Communications
Bus & Motor
STARLINK V2MO, Unknown motor
Mass
575 kg wet, ~530 kg dry
Launch date (UTC)
2025-07-16 (11 months ago)
Launch vehicle
FALCON 9
Launch site
Air Force Western Test Range (AFWTR)
Object type
Payload
Rocket body
Debris
Shape & HBR
Box + 2 Pan, 17.7 m
Radar Cross Section
36.964 m², Large (>1 m²)

Expand to show TLE details & history
Last TLE update: 9 hours ago

TLE from 9 hours ago
0 STARLINK-34669
1 64811U 25150X   26171.45570653  .00004194  00000-0  35895-3 0  9996
2 64811  69.9993 235.1988 0003773 268.2947  91.7780 14.98341176 51913
Epoch: 2026-06-20T10:56Z
TLE epoch observation values (Epoch: 2026-06-20T10:56:13.044Z)
Latitude
Longitude
162.47437°
Altitude
574.528 km
Speed
7.574 km/s
True Right ascension
15h 40m 47s
True Declination
0° 00' 00"
Sunlit
Object was in full shadow at epoch
Visualization orbit readout
Latitude
Unknown
Longitude
Unknown
Altitude
Unknown
Speed
Unknown
Apparent Right ascension
Unknown
Apparent Declination
Unknown
Sunlit
N/A
Visualization observer readout
Local Sidereal Time
07:15:25
Azimuth
Unknown
Elevation
Unknown
Doppler factor
Unknown
Orbital elements
Apogee altitude
572.591 km
Perigee altitude
567.348 km
Semi-major axis
6,948.107 km
Eccentricity
0.00038
Inclination
69.9993°
RAAN
235.1988°
Arg. of periapsis
268.2947°
True anomaly
91.82121°
Mean anomaly
91.778°
Eccentric anomaly
91.79961°
Mean motion
3.74752 °/min
Orbital period
96.06 mins
BSTAR
0.00035895
Loading maneuver chart data...
Computing Atmospheric mass density...
Loading historical data...
Loading historical data...
Loading historical data...
Loading historical data...
Loading historical data...
Loading historical data...
Loading historical data...

Documentation

Showing up to 5 results
|